DG2MCM-11 Weather Reports


time (UTC)temp
C
wind
direction
speed
KPH
gust
KPH
rain 1hr
cm
rain 24hr
cm
rain mn
cm
humidity
%
barometer
mb
20260507085835 15 0 0.0 0.0 0.00 0.00 0.00 59 1013.7
20260507082831 10 0 0.0 0.0 0.00 0.00 0.00 76 1015.0
20260507081829 10 0 0.0 0.0 0.00 0.00 0.00 77 1015.1
20260507075828 10 0 0.0 0.0 0.00 0.00 0.00 78 1014.9
20260507071821 9 0 0.0 0.0 0.00 0.00 0.00 80 1015.1
20260507070819 8 0 0.0 0.0 0.00 0.00 0.00 80 1015.0
20260507065817 8 0 0.0 0.0 0.00 0.00 0.00 81 1015.0
20260507064816 9 0 0.0 0.0 0.00 0.00 0.00 78 1014.9
20260507063813 8 0 0.0 0.0 0.00 0.00 0.00 79 1014.9
20260507062812 8 0 0.0 0.0 0.00 0.00 0.00 81 1014.8
20260507055806 9 0 0.0 0.0 0.00 0.00 0.00 80 1014.3
20260507052801 8 0 0.0 0.0 0.00 0.00 0.00 78 1014.2
20260507051759 8 0 0.0 0.0 0.00 0.00 0.00 78 1014.1
20260507050757 8 0 0.0 0.0 0.00 0.00 0.00 78 1014.0
20260507045755 8 0 0.0 0.0 0.00 0.00 0.00 79 1014.1
20260507044753 8 0 0.0 0.0 0.00 0.00 0.00 79 1014.0
20260507042750 8 0 0.0 0.0 0.00 0.00 0.00 80 1013.8
20260507041749 8 0 0.0 0.0 0.00 0.00 0.00 79 1013.7
20260507035746 8 0 0.0 0.0 0.00 0.00 0.00 79 1013.5
20260507034845 8 0 0.0 0.0 0.00 0.00 0.00 79 1013.5
20260507030839 8 0 0.0 0.0 0.00 0.00 0.00 78 1013.0
20260507025837 8 0 0.0 0.0 0.00 0.00 0.00 78 1013.0
20260507022832 8 0 0.0 0.0 0.00 0.00 0.00 79 1012.9
20260507021830 8 0 0.0 0.0 0.00 0.00 0.00 79 1012.8
20260507020828 8 0 0.0 0.0 0.00 0.00 0.00 79 1012.7
20260507010820 8 0 0.0 0.0 0.00 0.00 0.00 81 1012.7
20260507005818 8 0 0.0 0.0 0.00 0.00 0.00 81 1012.6
20260506225754 8 0 0.0 0.0 0.00 0.00 0.00 80 1012.5
20260506223750 8 0 0.0 0.0 0.00 0.00 0.00 79 1012.4
20260506222748 8 0 0.0 0.0 0.00 0.00 0.00 80 1012.4
20260506214843 8 0 0.0 0.0 0.00 0.00 0.00 81 1012.3
20260506213842 8 0 0.0 0.0 0.00 0.00 0.00 80 1012.2
20260506211839 8 0 0.0 0.0 0.00 0.00 0.00 81 1012.3
20260506210836 8 0 0.0 0.0 0.00 0.00 0.00 81 1012.2
20260506203832 8 0 0.0 0.0 0.00 0.00 0.00 80 1012.0
20260506202830 8 0 0.0 0.0 0.00 0.00 0.00 80 1011.9
20260506201828 8 0 0.0 0.0 0.00 0.00 0.00 80 1011.8
20260506194823 8 0 0.0 0.0 0.00 0.00 0.00 80 1011.5
20260506193821 8 0 0.0 0.0 0.00 0.00 0.00 80 1011.4
20260506192820 8 0 0.0 0.0 0.00 0.00 0.00 80 1011.4
20260506191818 8 0 0.0 0.0 0.00 0.00 0.00 80 1011.4
20260506185816 8 0 0.0 0.0 0.00 0.00 0.00 79 1011.1
20260506184813 9 0 0.0 0.0 0.00 0.00 0.00 78 1011.0
20260506180808 10 0 0.0 0.0 0.00 0.00 0.00 76 1010.4
20260506174805 10 0 0.0 0.0 0.00 0.00 0.00 76 1010.0
20260506172801 10 0 0.0 0.0 0.00 0.00 0.00 79 1009.7
20260506170758 10 0 0.0 0.0 0.00 0.00 0.00 80 1009.7
20260506165756 10 0 0.0 0.0 0.00 0.00 0.00 79 1009.3
20260506164754 10 0 0.0 0.0 0.00 0.00 0.00 80 1009.4
20260506163752 9 0 0.0 0.0 0.00 0.00 0.00 78 1009.7
20260506161749 10 0 0.0 0.0 0.00 0.00 0.00 70 1009.3
20260506160747 11 0 0.0 0.0 0.00 0.00 0.00 70 1009.0
20260506155845 11 0 0.0 0.0 0.00 0.00 0.00 71 1009.1
20260506153843 11 0 0.0 0.0 0.00 0.00 0.00 71 1008.5
20260506152842 11 0 0.0 0.0 0.00 0.00 0.00 73 1008.2
20260506150838 11 0 0.0 0.0 0.00 0.00 0.00 73 1008.0
20260506145837 12 0 0.0 0.0 0.00 0.00 0.00 69 1007.6
20260506144835 15 0 0.0 0.0 0.00 0.00 0.00 67 1006.4
20260506142832 15 0 0.0 0.0 0.00 0.00 0.00 67 1005.5
20260506140828 16 0 0.0 0.0 0.00 0.00 0.00 65 1005.4
20260506131822 12 0 0.0 0.0 0.00 0.00 0.00 80 1007.2
20260506130820 13 0 0.0 0.0 0.00 0.00 0.00 75 1007.0
20260506124817 14 0 0.0 0.0 0.00 0.00 0.00 77 1006.4
20260506123815 13 0 0.0 0.0 0.00 0.00 0.00 79 1006.0
20260506122813 14 0 0.0 0.0 0.00 0.00 0.00 73 1005.7
20260506121811 15 0 0.0 0.0 0.00 0.00 0.00 65 1005.0
20260506115807 17 0 0.0 0.0 0.00 0.00 0.00 57 1004.3
20260506114805 18 0 0.0 0.0 0.00 0.00 0.00 54 1004.1
20260506113803 19 0 0.0 0.0 0.00 0.00 0.00 50 1003.7
20260506105748 19 0 0.0 0.0 0.00 0.00 0.00 49 1004.2
20260506104747 20 0 0.0 0.0 0.00 0.00 0.00 48 1003.8
20260506103845 22 0 0.0 0.0 0.00 0.00 0.00 44 1003.3
20260506102843 23 0 0.0 0.0 0.00 0.00 0.00 43 1002.9
20260506101842 26 0 0.0 0.0 0.00 0.00 0.00 38 1002.6
20260506093836 23 0 0.0 0.0 0.00 0.00 0.00 44 1003.9
20260506092834 18 0 0.0 0.0 0.00 0.00 0.00 52 1005.0
20260506091832 18 0 0.0 0.0 0.00 0.00 0.00 54 1005.3
20260506090830 17 0 0.0 0.0 0.00 0.00 0.00 56 1005.5